Preview of NWS' New Version of Forecast
This preview is not operational and should not be used for support decisions.

Regional Weather Roundup (RWR)

Issued by National Weather Service (NWS)

                            
000
ASUS45 KABQ 221701
RWRNM 
NEW MEXICO REGIONAL WEATHER ROUNDUP
NATIONAL WEATHER SERVICE ALBUQUERQUE NM
1100 AM MDT MON APR 22 2019

NOTE: "FAIR" MEANS FEW OR NO CLOUDS BELOW 12,000 FEET AGL WITH NO
       SIGNIFICANT WEATHER OR OBSTRUCTIONS TO VISION.

      THIS PRODUCT IS RELEASED AS TWO VERSIONS.  ONE VERSION NEAR
      THE TOP OF THE HOUR CONTAINING PRELIMINARY DATA FROM ALBUQUERQUE
      AND OTHER STATIONS.  A FINAL VERSION WITH ADDITIONAL DATA IS 
      ISSUED ABOUT 10 MINUTES AFTER THE HOUR.
 
NMZ501-503-504-510>518-221800-
NORTHWEST PLATEAU/NORTHCENTRAL MOUNTAINS
  
CITY           SKY/WX    TMP DP  RH WIND       PRES   REMARKS
FARMINGTON     FAIR      61  21  21 E6        30.07R                  
LOS ALAMOS       N/A     58  25  27 SW6       30.16S                  
SANTA FE       FAIR      64  30  27 S20G25    30.12S                  
TAOS           FAIR      62  23  22 S8        30.16S                  

$$
NMZ402-403-502-505>509-221800-
WESTCENTRAL MOUNTAINS/SOUTHWEST MOUNTAINS
  
CITY           SKY/WX    TMP DP  RH WIND       PRES   REMARKS
GALLUP         FAIR      55  23  28 E5        30.12R                  
GRANTS         FAIR      59  26  28 SE8       30.14S                  
SILVER CITY    FAIR      65  30  27 SW8       30.07F                  

$$
NMZ407-409-411-412-221800-
SOUTHERN DESERTS
  
CITY           SKY/WX    TMP DP  RH WIND       PRES   REMARKS
DEMING         FAIR      71  36  27 S6        30.03S                  
LAS CRUCES     FAIR      70  33  25 CALM      30.05F                  
HOLLOMAN AFB   FAIR      71  29  21 S6        30.06R                  
ALAMOGORDO     FAIR      68  32  26 S15       30.05R                  
T OR C         FAIR      68  26  20 VRB5      30.05R                  

$$
NMZ519>523-221800-
CENTRAL VALLEYS/CENTRAL HIGHLANDS
  
CITY           SKY/WX    TMP DP  RH WIND       PRES   REMARKS
ALBUQUERQUE    PTSUNNY   65  32  29 SE16      30.09R                  
DOUBLE EAGLE   MOSUNNY   63  27  25 E10       30.10S                  
CLINES CORNERS FAIR      50  36  58 E25G35    30.19S                  
BELEN          PTSUNNY   63  25  24 SW10      30.09S                  
SOCORRO        NOT AVBL                                               

$$
NMZ524>526-539-540-221800-
SOUTHCENTRAL MOUNTAINS
  
CITY           SKY/WX    TMP DP  RH WIND       PRES   REMARKS
RUIDOSO        FAIR      50  36  57 SE8       30.21R                  

$$
NMZ527>531-221800-
NORTHEAST HIGHLANDS/NORTHEAST PLAINS
  
CITY           SKY/WX    TMP DP  RH WIND       PRES   REMARKS
LAS VEGAS      FAIR      57  35  43 SE15G23   30.21R                  
RATON          FAIR      58  37  45 NE10      30.20R                  
CLAYTON        FAIR      60  40  47 N22G28    30.17R                  

$$
NMZ532>537-221800-
EASTCENTRAL PLAINS
  
CITY           SKY/WX    TMP DP  RH WIND       PRES   REMARKS
SANTA ROSA     FAIR      58  41  54 NE21G26   30.15R                  
TUCUMCARI      FAIR      61  42  49 E16       30.14R                  
CANNON AFB     PTSUNNY   56  45  65 NE21G29   30.12R                  
CLOVIS AIRPORT FAIR      57  46  66 NE20G30   30.13R                  

$$
NMZ028-029-538-221800-
SOUTHEAST PLAINS
  
CITY           SKY/WX    TMP DP  RH WIND       PRES   REMARKS
ROSWELL        FAIR      62  44  51 N15       30.09R                  
ARTESIA        FAIR      63  43  48 N20       30.08R                  
CARLSBAD       FAIR      65  43  44 NW31      30.04R                  
HOBBS          SUNNY     66  46  48 N14G21    30.03R                  


$$